• Processing (Info)

  • MPEC 2001-U39 : 1999 GT3

    The following Minor Planet Electronic Circular may be linked-to from your own Web pages, but must not otherwise be redistributed electronically.

    A form allowing access to any MPEC is at the bottom of this page.


    Read MPEC 2001-U38 Read MPEC 2001-U40


    M.P.E.C. 2001-U39                                Issued 2001 Oct. 22, 19:10 UT
    
         The Minor Planet Electronic Circulars contain information on unusual
             minor planets and routine data on comets.  They are published
       on behalf of Commission 20 of the International Astronomical Union by the
              Minor Planet Center, Smithsonian Astrophysical Observatory,
                              Cambridge, MA 02138, U.S.A.
    
                 Prepared using the Tamkin Foundation Computer Network
    
                                  MPC@CFA.HARVARD.EDU
              URL http://cfa-www.harvard.edu/iau/mpc.html  ISSN 1523-6714
    
                                       1999 GT3
    
                               Revision to MPEC 1999-G21
    
    Observations:
         J99G03T  C2001 06 19.97264 15 09 49.03 +11 57 19.4          21.8 V      493
         J99G03T  C2001 06 19.97609 15 09 48.77 +11 57 18.2                      493
         J99G03T  C2001 06 20.00527 15 09 46.64 +11 57 10.1                      493
         J99G03T  C2001 06 20.00866 15 09 46.37 +11 57 09.0                      493
         J99G03T 2C2001 09 20.24293 15 22 50.70 -01 55 21.3                      568
    
    Observer details:
    493 Calar Alto.  Observers DANEOPS Team (M. Busch, A. Seib, F. Hormuth).
        Measurers R. Stoss, A. Gnadig, A. Doppler.  1.52-m reflector + CCD.
    568 Mauna Kea.  Observer D. J. Tholen.  2.2-m University of
        Hawaii reflector + CCD.
    
    Orbital elements:
    1999 GT3
    Epoch 2001 Oct. 18.0 TT = JDT 2452200.5                 Spahr
    M 269.81209              (2000.0)            P               Q
    n   0.63980298     Peri.  260.60713     +0.50121492     -0.85612845
    a   1.3338445      Node   157.88799     +0.86518037     +0.49316954
    e   0.8377604      Incl.   19.52537     +0.01570162     +0.15436283
    P   1.54           H   17.9           G   0.15           U   5
    Residuals in seconds of arc
    990409 704  0.6+  0.5-    990410 704  1.3+  0.5-    990412 422  0.1-  0.3-
    990409 704  1.9+  0.6+    990410 704  1.6+  1.6+    990412 422  0.8-  0.1+
    990409 704  1.6-  0.4-    990410 704  1.7+  1.3-    990412 422  0.6+  0.2-
    990409 704  0.4-  0.1+    990410 704  0.8+  0.6+    990412 422  0.1-  0.0
    990409 611  0.2+  1.0+    990410 557  1.3-  0.0     990415 118  0.4-  0.2-
    990409 611  0.0   0.3+    990410 557  0.2-  0.3-    990415 118  0.1+  0.3-
    990409 611  0.2+  0.1-    990410 557  1.2+  0.4-    990415 118  0.3+  0.2+
    990410 046  0.7-  0.1-    990411 859  0.9+  0.7+    990418 422  0.3-  1.3-
    990410 046  1.7-  0.7+    990411 859  0.1-  0.3+    990419 118  0.4-  0.8-
    990410 046  0.4-  0.9+    990411 859  0.1+  0.2+    990419 118  0.3+  0.8-
    990410 046  1.2-  0.5+    990411 422  0.4-  0.3-    990419 118  0.2-  0.8-
    990410 046  1.7-  0.2-    990411 422  0.3+  0.5-    990422 658  0.4+  0.2-
    990410 046  0.7-  0.3-    990411 422  0.4-  0.1+    990422 658  0.7+  0.1-
    990410 118  0.3-  0.2+    990411 422  0.5-  0.1-    990422 658  0.7+  0.1+
    990410 118  0.3+  0.1+    990412 704  0.1-  0.8+    990505 658  1.4-  0.3+
    990410 118  1.7+  0.6+    990412 704  1.3+  0.4+    990505 658  0.4+  0.7+
    990410 557  0.6-  0.1+    990412 704  0.7+  0.9+    990505 658  0.3+  0.9+
    990410 557  0.3-  0.0     990412 704  0.0   0.4-    010619 493  0.0   0.1+
    990410 557  0.5-  0.0     990412 704  0.2-  0.2+    010619 493  0.1-  0.1-
    990410 704  0.1-  0.5-    990412 704  0.3-  0.9-    010620 493  0.2+  0.3+
    990410 704  0.4-  0.6-    990412 704 (2.3-  3.6-)   010620 493  0.1-  0.2+
    990410 704  0.9-  0.8+    990412 704  0.2-  1.4-    010920 568  0.0   0.3-
    990410 704  1.1+  1.5+    990412 704  1.4-  0.7-
    990410 704  1.9+  1.1-    990412 704  1.3-  0.0
    
    Timothy B. Spahr             (C) Copyright 2001 MPC           M.P.E.C. 2001-U39
    

    Read MPEC 2001-U38 Read MPEC 2001-U40


    MPEC number:

    Enter an MPEC number in one of the following forms:

    • 1997-B01 (the full form)
    • J97B01 (the packed version of the full form)
    • B01 (the abbreviated form)